CEST,Max TemperatureF,Mean TemperatureF,Min TemperatureF,Max Dew PointF,MeanDew PointF,Min DewpointF,Max Humidity, Mean Humidity, Min Humidity, Max Sea Level PressureIn, Mean Sea Level PressureIn, Min Sea Level PressureIn, Max VisibilityMiles, Mean VisibilityMiles, Min VisibilityMiles, Max Wind SpeedMPH, Mean Wind SpeedMPH, Max Gust SpeedMPH,PrecipitationIn, CloudCover, Events, WindDirDegrees
2013-3-1,54,48,42,38,36,32,81,63,42,30.06,29.97,29.92,19,6,4,20,5,31,0.00,6,Rain,336
2013-3-2,55,46,37,37,34,32,81,65,44,30.09,30.00,29.98,6,5,4,13,5,,0.00,8,,278
2013-3-3,59,46,34,43,36,30,93,71,45,30.11,30.03,29.98,9,4,3,7,3,,0.00,,,184
2013-3-4,61,50,39,45,40,34,87,64,42,30.04,30.00,29.95,19,6,4,23,7,,0.00,1,,112
2013-3-5,59,54,49,45,39,30,76,54,34,29.95,29.77,29.62,12,6,6,38,22,59,0.01,7,Rain,85
2013-3-6,57,54,51,48,44,41,88,68,52,29.59,29.45,29.39,19,6,6,44,35,63,0.08,6,Rain,75
2013-3-7,59,55,51,54,50,46,94,84,72,29.66,29.57,29.47,19,6,2,18,13,,0.16,7,Rain,108
2013-3-8,64,58,51,52,49,45,94,75,57,29.68,29.58,29.47,9,6,1,24,12,33,0.04,6,Rain,191
2013-3-9,62,54,47,52,48,43,94,82,59,29.68,29.63,29.59,9,6,5,13,5,,0.02,4,Rain,153
2013-3-10,62,54,46,52,46,41,93,80,48,29.65,29.55,29.47,19,7,6,13,4,,0.00,5,,247
2013-3-11,64,55,46,46,44,37,87,73,37,29.56,29.51,29.47,19,7,6,15,5,,0.00,4,,202
2013-3-12,58,50,43,46,42,36,93,72,51,29.52,29.48,29.44,9,6,6,20,6,,0.00,6,,252
2013-3-13,52,43,34,37,32,27,87,64,41,29.48,29.42,29.36,12,7,6,31,11,36,0.00,6,,311
2013-3-14,45,40,34,27,20,16,65,45,22,29.62,29.51,29.44,19,8,6,52,36,70,0.00,1,,319
2013-3-15,46,40,35,23,19,12,60,42,17,29.98,29.81,29.62,6,6,6,40,35,58,0.00,1,,322
2013-3-16,56,40,25,41,28,16,71,53,27,30.02,29.97,29.89,16,7,6,23,12,,0.02,6,Rain,122
2013-3-17,53,50,47,45,41,37,82,67,49,29.89,29.67,29.42,6,6,6,30,20,39,0.16,6,Rain,112
2013-3-18,55,50,44,45,41,36,93,76,51,29.65,29.47,29.33,19,6,4,29,11,,0.04,6,Rain,307
2013-3-19,56,49,42,39,36,32,81,62,30,29.77,29.71,29.65,6,6,6,13,6,,0.00,5,,290
2013-3-20,59,54,46,46,40,32,87,66,31,29.98,29.73,29.59,6,6,5,23,10,37,0.20,6,Rain,356
2013-3-21,60,51,42,43,38,32,82,62,32,30.04,29.99,29.92,6,6,6,18,10,,0.00,,,276
2013-3-22,61,49,37,51,43,34,87,74,59,29.92,29.82,29.74,19,7,6,17,7,,0.00,6,,128
2013-3-23,59,54,50,46,45,43,77,68,56,29.81,29.71,29.62,12,6,6,25,12,32,0.00,6,Rain,84
2013-3-24,52,51,50,50,48,46,94,87,73,29.64,29.56,29.53,19,7,4,13,8,,0.31,6,Rain,39
2013-3-25,62,54,47,48,43,39,94,68,43,29.56,29.54,29.50,19,7,5,28,12,37,0.00,8,,312
2013-3-26,61,52,44,41,38,36,76,59,31,29.59,29.55,29.50,12,7,6,26,11,,0.00,1,,312
2013-3-27,60,48,37,46,40,30,81,71,49,29.74,29.63,29.59,19,7,6,15,6,,0.00,6,Rain,151
2013-3-28,55,53,51,50,46,41,94,78,61,29.80,29.72,29.68,16,6,4,18,9,,0.24,7,Rain,90
2013-3-29,62,56,49,54,50,48,94,83,61,29.79,29.72,29.62,16,6,6,9,3,,0.01,5,Rain,154
2013-3-30,63,56,50,54,49,45,94,74,45,29.62,29.51,29.42,6,6,4,24,13,31,0.02,6,Rain,304
2013-3-31,55,48,42,45,36,28,82,59,29,29.65,29.62,29.59,7,6,6,32,19,39,0.00,2,,310
2013-4-1,,,,,,,,,,,,,,,,,,,,,,